• In Uzbekistan
  • List of Countries
  • For 7 days
  • Water Temperature
  • Satellite Maps
  • Weather Map
  • Weather Widgets
  • user-avatar
    Login

    Hourly Weather Santa Fe

    Today, 2 December, Friday

    Time Temperature Precipitation Wind Pressure Humidity
    00:00 +24°C° 0 mm 2 mps 756 mmHg 58%
    01:00 +23°C° 0 mm 2 mps 756 mmHg 59%
    02:00 +23°C° 0 mm 2 mps 756 mmHg 62%
    03:00 +23°C° 0.2 mm 2 mps 756 mmHg 67%
    04:00 +21°C° 0.2 mm 2 mps 756 mmHg 71%
    05:00 +21°C° 0.2 mm 2 mps 756 mmHg 75%
    06:00 +24°C° 0.1 mm 2 mps 757 mmHg 72%
    07:00 +26°C° 0.1 mm 2 mps 757 mmHg 68%
    08:00 +29°C° 0 mm 2 mps 757 mmHg 58%
    09:00 +30°C° 0 mm 2 mps 757 mmHg 52%
    10:00 +32°C° 0 mm 2 mps 757 mmHg 47%
    11:00 +34°C° 0 mm 2 mps 756 mmHg 42%
    12:00 +34°C° 0.2 mm 2 mps 756 mmHg 44%
    13:00 +34°C° 0.2 mm 3 mps 756 mmHg 46%
    14:00 +34°C° 0.2 mm 3 mps 755 mmHg 48%
    15:00 +33°C° 0.1 mm 3 mps 755 mmHg 50%
    16:00 +33°C° 0.1 mm 3 mps 755 mmHg 52%
    17:00 +31°C° 0.1 mm 3 mps 754 mmHg 55%
    18:00 +29°C° 0 mm 3 mps 755 mmHg 61%
    19:00 +28°C° 0 mm 3 mps 755 mmHg 67%
    20:00 +26°C° 0 mm 2 mps 755 mmHg 74%
    21:00 +25°C° 0 mm 2 mps 756 mmHg 78%
    22:00 +25°C° 0 mm 2 mps 756 mmHg 82%
    23:00 +24°C° 0 mm 2 mps 756 mmHg 86%

    Tomorrow, 3 December, Saturday

    Time Temperature Precipitation Wind Pressure Humidity
    00:00 +24°C° 0 mm 2 mps 756 mmHg 88%
    01:00 +23°C° 0 mm 2 mps 756 mmHg 91%
    02:00 +23°C° 0 mm 2 mps 756 mmHg 94%
    03:00 +23°C° 0 mm 2 mps 756 mmHg 94%
    04:00 +22°C° 0 mm 1 mps 756 mmHg 94%
    05:00 +22°C° 0 mm 1 mps 756 mmHg 94%
    06:00 +24°C° 0 mm 1 mps 756 mmHg 84%
    07:00 +25°C° 0 mm 0 mps 756 mmHg 75%
    08:00 +27°C° 0 mm 0 mps 757 mmHg 65%
    09:00 +31°C° 0 mm 1 mps 756 mmHg 57%
    10:00 +34°C° 0 mm 2 mps 756 mmHg 49%
    11:00 +36°C° 0 mm 2 mps 756 mmHg 41%
    12:00 +37°C° 0 mm 3 mps 755 mmHg 37%
    13:00 +38°C° 0 mm 4 mps 754 mmHg 32%
    14:00 +40°C° 0 mm 5 mps 754 mmHg 28%
    15:00 +39°C° 0 mm 5 mps 754 mmHg 29%
    16:00 +39°C° 0 mm 5 mps 753 mmHg 30%
    17:00 +39°C° 0 mm 5 mps 753 mmHg 30%
    18:00 +35°C° 0 mm 4 mps 753 mmHg 36%
    19:00 +33°C° 0 mm 4 mps 754 mmHg 42%
    20:00 +30°C° 0 mm 4 mps 754 mmHg 49%
    21:00 +29°C° 0 mm 4 mps 754 mmHg 55%
    22:00 +28°C° 0 mm 4 mps 755 mmHg 61%
    23:00 +27°C° 0 mm 4 mps 755 mmHg 67%

    Day after tomorrow, 4 December, Sunday

    Time Temperature Precipitation Wind Pressure Humidity
    00:00 +26°C° 0 mm 3 mps 755 mmHg 71%
    01:00 +25°C° 0 mm 3 mps 755 mmHg 74%
    02:00 +25°C° 0 mm 3 mps 755 mmHg 78%
    03:00 +24°C° 0 mm 3 mps 755 mmHg 80%
    04:00 +24°C° 0 mm 3 mps 755 mmHg 82%
    05:00 +22°C° 0 mm 3 mps 755 mmHg 83%
    06:00 +26°C° 0 mm 3 mps 755 mmHg 74%
    07:00 +28°C° 0 mm 4 mps 756 mmHg 64%
    08:00 +32°C° 0 mm 5 mps 756 mmHg 54%
    09:00 +34°C° 0 mm 5 mps 756 mmHg 44%
    10:00 +36°C° 0 mm 6 mps 755 mmHg 35%
    11:00 +39°C° 0 mm 6 mps 755 mmHg 26%
    12:00 +40°C° 0 mm 6 mps 754 mmHg 23%
    13:00 +40°C° 0 mm 6 mps 753 mmHg 21%
    14:00 +41°C° 0 mm 6 mps 752 mmHg 19%
    15:00 +40°C° 0 mm 6 mps 752 mmHg 19%
    16:00 +40°C° 0 mm 6 mps 751 mmHg 20%
    17:00 +39°C° 0 mm 6 mps 750 mmHg 21%
    18:00 +36°C° 0 mm 6 mps 751 mmHg 25%
    19:00 +33°C° 0 mm 5 mps 751 mmHg 29%
    20:00 +30°C° 0 mm 5 mps 751 mmHg 33%
    21:00 +29°C° 0 mm 5 mps 751 mmHg 35%
    22:00 +28°C° 0 mm 5 mps 752 mmHg 38%
    23:00 +27°C° 0 mm 5 mps 752 mmHg 41%

    5 December, Monday

    Time Temperature Precipitation Wind Pressure Humidity
    00:00 +26°C° 0 mm 4 mps 752 mmHg 42%
    01:00 +25°C° 0 mm 4 mps 751 mmHg 44%
    02:00 +23°C° 0 mm 4 mps 751 mmHg 45%
    03:00 +23°C° 0 mm 4 mps 751 mmHg 48%
    04:00 +22°C° 0 mm 4 mps 751 mmHg 52%
    05:00 +22°C° 0 mm 4 mps 751 mmHg 55%
    06:00 +25°C° 0 mm 4 mps 752 mmHg 53%
    07:00 +27°C° 0 mm 4 mps 753 mmHg 51%
    08:00 +30°C° 0 mm 4 mps 753 mmHg 48%
    09:00 +33°C° 0 mm 4 mps 753 mmHg 43%
    10:00 +34°C° 0 mm 3 mps 753 mmHg 37%
    11:00 +36°C° 0 mm 2 mps 753 mmHg 32%
    12:00 +37°C° 0 mm 2 mps 752 mmHg 29%
    13:00 +37°C° 0 mm 1 mps 751 mmHg 27%
    14:00 +40°C° 0 mm 1 mps 751 mmHg 24%
    15:00 +39°C° 0 mm 1 mps 750 mmHg 24%
    16:00 +39°C° 0 mm 2 mps 750 mmHg 24%
    17:00 +39°C° 0 mm 2 mps 750 mmHg 24%
    18:00 +36°C° 0 mm 3 mps 750 mmHg 28%
    19:00 +34°C° 0 mm 3 mps 751 mmHg 33%
    20:00 +30°C° 0 mm 3 mps 751 mmHg 38%
    21:00 +29°C° 0 mm 3 mps 752 mmHg 41%
    22:00 +28°C° 0 mm 4 mps 752 mmHg 44%
    23:00 +27°C° 0 mm 4 mps 752 mmHg 47%

    6 December, Tuesday

    Time Temperature Precipitation Wind Pressure Humidity
    00:00 +27°C° 0 mm 5 mps 753 mmHg 43%
    01:00 +26°C° 0 mm 6 mps 753 mmHg 40%
    02:00 +26°C° 0 mm 7 mps 753 mmHg 36%
    03:00 +24°C° 0.1 mm 6 mps 754 mmHg 39%
    04:00 +23°C° 0.1 mm 5 mps 754 mmHg 42%
    05:00 +22°C° 0.1 mm 4 mps 755 mmHg 44%
    06:00 +23°C° 0 mm 5 mps 755 mmHg 39%
    07:00 +26°C° 0 mm 6 mps 756 mmHg 34%
    08:00 +28°C° 0 mm 7 mps 756 mmHg 28%
    09:00 +30°C° 0 mm 6 mps 756 mmHg 26%
    10:00 +33°C° 0 mm 5 mps 756 mmHg 24%
    11:00 +35°C° 0 mm 5 mps 755 mmHg 21%
    12:00 +35°C° 0.3 mm 5 mps 755 mmHg 23%
    13:00 +35°C° 0.3 mm 4 mps 754 mmHg 25%
    14:00 +35°C° 0.3 mm 4 mps 753 mmHg 27%
    15:00 +34°C° 0.3 mm 4 mps 753 mmHg 32%
    16:00 +33°C° 0.3 mm 5 mps 753 mmHg 36%
    17:00 +32°C° 0.3 mm 5 mps 752 mmHg 40%
    18:00 +29°C° 0 mm 4 mps 752 mmHg 46%
    19:00 +26°C° 0 mm 3 mps 753 mmHg 52%
    20:00 +24°C° 0 mm 1 mps 753 mmHg 58%
    21:00 +24°C° 0 mm 2 mps 753 mmHg 58%
    22:00 +23°C° 0 mm 2 mps 754 mmHg 58%
    23:00 +23°C° 0 mm 2 mps 754 mmHg 58%

    7 December, Wednesday

    Time Temperature Precipitation Wind Pressure Humidity
    00:00 +23°C° 0 mm 2 mps 754 mmHg 59%
    01:00 +21°C° 0 mm 2 mps 753 mmHg 61%
    02:00 +21°C° 0 mm 2 mps 753 mmHg 62%
    03:00 +20°C° 0 mm 2 mps 753 mmHg 62%
    04:00 +20°C° 0 mm 2 mps 753 mmHg 63%
    05:00 +20°C° 0 mm 2 mps 754 mmHg 63%
    06:00 +22°C° 0 mm 3 mps 754 mmHg 57%
    07:00 +26°C° 0 mm 3 mps 754 mmHg 51%
    08:00 +29°C° 0 mm 4 mps 755 mmHg 45%
    09:00 +31°C° 0 mm 3 mps 754 mmHg 40%
    10:00 +34°C° 0 mm 2 mps 754 mmHg 35%
    11:00 +36°C° 0 mm 2 mps 753 mmHg 30%
    12:00 +37°C° 0 mm 2 mps 752 mmHg 27%
    13:00 +38°C° 0 mm 3 mps 751 mmHg 23%
    14:00 +39°C° 0 mm 3 mps 750 mmHg 20%
    15:00 +38°C° 0 mm 3 mps 750 mmHg 21%
    16:00 +38°C° 0 mm 3 mps 750 mmHg 23%
    17:00 +37°C° 0 mm 3 mps 750 mmHg 24%
    18:00 +34°C° 0 mm 3 mps 750 mmHg 29%
    19:00 +31°C° 0 mm 3 mps 750 mmHg 34%
    20:00 +28°C° 0 mm 3 mps 751 mmHg 39%
    21:00 +27°C° 0 mm 4 mps 751 mmHg 43%
    22:00 +26°C° 0 mm 4 mps 751 mmHg 47%
    23:00 +25°C° 0 mm 4 mps 752 mmHg 51%
    Show more